Location: Unspecified
(49.2170°N, 0.0000°E)
Time: 22:20:25
(UTC+00:00)

Tiros 1 despin weight - Visible Passes

Search period start: 19 January 2021 00:00
Search period end: 29 January 2021 00:00
Orbit: 594 x 641 km, 48.2° (Epoch: 19 January)

Date Brightness Start Highest point End Pass type
(mag) Time Alt. Az. Time Alt. Az. Time Alt. Az.
19 Jan ? 17:15:44 10° WSW 17:20:07 54° SSE 17:24:27 10° E visible
19 Jan ? 18:57:04 10° W 19:01:31 80° S 19:01:41 78° SSE visible
19 Jan ? 20:38:36 10° W 20:38:44 11° W 20:38:44 11° W visible
20 Jan ? 17:31:59 10° WSW 17:36:26 70° SSE 17:40:23 13° E visible
20 Jan ? 19:13:27 10° W 19:17:26 66° WSW 19:17:26 66° WSW visible
21 Jan ? 17:48:19 10° W 17:52:48 79° S 17:56:09 17° E visible
21 Jan ? 19:29:51 10° W 19:33:12 46° WSW 19:33:12 46° WSW visible
22 Jan ? 18:04:42 10° W 18:09:11 79° S 18:11:58 22° E visible
22 Jan ? 19:46:17 10° W 19:49:01 32° WSW 19:49:01 32° WSW visible
23 Jan ? 18:21:05 10° W 18:25:33 70° SSW 18:27:50 27° ESE visible
23 Jan ? 20:02:48 10° W 20:04:54 22° WSW 20:04:54 22° WSW visible
24 Jan ? 18:37:30 10° W 18:41:52 54° SSW 18:43:47 30° SE visible
24 Jan ? 20:19:37 10° W 20:20:51 15° WSW 20:20:51 15° WSW visible
25 Jan ? 18:53:57 10° W 18:58:06 38° SSW 18:59:49 27° SSE visible
26 Jan ? 17:28:44 10° W 17:33:11 64° SSW 17:37:34 10° ESE visible
26 Jan ? 19:10:34 10° W 19:14:15 25° SSW 19:16:00 20° S visible
27 Jan ? 17:45:09 10° W 17:49:28 48° SSW 17:53:44 10° SE visible
27 Jan ? 19:27:37 10° WSW 19:30:15 16° SW 19:32:20 12° S visible
28 Jan ? 18:01:39 10° W 18:05:40 33° SSW 18:09:38 10° SE visible
